ABS-3A (40424 NORAD) Tracking and Keplerian Element Data

This shows tracking and keplerian element data for the satellite.

Feedback or suggestion? Click here.




ElementValue
Catalog40424
NameABS-3A
Epoch Orbit1365
Epoch Day321.85050207
Epoch Year2018
RAAN326.6611
Inclination0.0133
Eccentricity0.0001843
Argument of Perigee166.0801
Mean Anonmoly227.3071
Mean Motion1.00271415
Decay Rate-1.9E-07
L11 40424U 15010A 18321.85050207 -.00000019 00000-0 00000+0 0 9993
L22 40424 0.0133 326.6611 0001843 166.0801 227.3071 1.00271415 13654

Live tracking and technical data element details for ABS-3A (NORAD 40424). ABS-3A can be tracked NOW for your location showing map with azimuth and elevation plus other details from your city location.

Track the satellite on the map from your city or location and see movement details for azimuth, elevation, latitude, longitude, range, height, and movement on the map or in text.







IsCatalogInMostPopularTable: catalog: 40424, numindb: 116
Update: records affected: 1



GetName: 40424 ABS-3A

Hit Count: updated at: Mon, 19 Nov 2018 14:31:55 GMT